Regional Weather Roundup
Issued by NWS

Home | Current Version | Previous Version | Text Only | Print | Product List | Glossary On
Versions: 1 2 3 4 5 6 7 8 9 10 11 12 13 14 15 16 17 18 19 20 21 22 23 24 25 26 27 28 29 30 31 32 33 34 35 36 37 38 39 40 41 42 43 44 45 46 47 48 49 50
000
ASUS44 KFWD 301010
RWRTX
NORTH TEXAS HOURLY WEATHER ROUNDUP
NATIONAL WEATHER SERVICE FORT WORTH TX
500 AM CDT SUN APR 30 2017

NOTE: "FAIR" INDICATES FEW OR NO CLOUDS BELOW 12,000 FEET WITH NO
SIGNIFICANT WEATHER AND/OR OBSTRUCTIONS TO VISIBILITY.

TXZ118-119-301100-
DALLAS/FORT WORTH METROPLEX

CITY           SKY/WX    TMP DP  RH WIND       PRES   REMARKS
DFW AIRPORT    CLOUDY    53  45  74 W20G28    29.74F
DALLAS LOVE    CLOUDY    53  45  74 W13G25    29.75F
FTW MEACHAM    MOCLDY    51  45  79 W15       29.77R
DAL-EXECUTIVE  CLOUDY    51  47  86 W12G17    29.77F
FTW-ALLIANCE   CLOUDY    50  43  77 W15G28    29.75F
FTW-SPINKS     PTCLDY    50  44  78 W17       29.84R
ARLINGTON      MOCLDY    51  43  74 W9G20     29.77S
GRAND PRAIRIE  PTCLDY    53  42  68 W14G20    29.79S
ADDISON        MOCLDY    51  44  77 W13G20    29.75F
MESQUITE       CLOUDY    52  48  87 SW13      29.76S
LANCASTER      CLOUDY    51  46  84 W10G16    29.79R
$$

TXZ091>094-102>105-117-120-121-131>134-301100-
NORTH CENTRAL TEXAS

CITY           SKY/WX    TMP DP  RH WIND       PRES   REMARKS
SHRMAN/DENISON CLOUDY    49  46  88 SW13G21   29.72F
GAINESVILLE    CLOUDY    48  42  80 W12G20    29.75R
BOWIE          CLOUDY    45  39  81 W16G26    29.75F WCI  38
BRIDGEPORT     CLOUDY    46  39  78 W10G21    29.80F
DECATUR        CLOUDY    46  38  75 W17G28    29.77R WCI  39
DENTON         CLOUDY    49  44  83 W23G31    29.77S
MCKINNEY       CLOUDY    52  48  86 W14       29.72F
BONHAM         CLOUDY    50  46  87 W10G17    29.66F
GREENVILLE     MOCLDY    55  50  82 W12G18    29.72F
ROCKWALL       CLOUDY    53  48  82 W12G22    29.73F
TERRELL        CLOUDY    52  47  83 SW15G22   29.75F
WAXAHACHIE     CLOUDY    51  46  82 W9G21     29.80F
CLEBURNE       CLOUDY    50  46  87 W15G25    29.82F
GRANBURY       PTCLDY    49  39  68 W12G21    29.85S
$$

TXZ083>090-098>101-113>116-127>130-139>142-154-155-301100-
WESTERN NORTH TEXAS

CITY           SKY/WX    TMP DP  RH WIND       PRES   REMARKS
WICHITA FALLS  MOCLDY    42  37  82 SW14G23   29.73F WCI  35
VERNON         CLOUDY    43  35  73 W15       29.74F WCI  36
ABILENE        MOCLDY    41  34  76 NW15G25   29.87F WCI  33
ABILENE-DYESS  CLOUDY    43  33  67 W16G24    29.87R WCI  35
GRAHAM         CLOUDY    42  37  82 W9G17     29.79F WCI  37
BRECKENRIDGE   PTCLDY    45  35  67 W21       29.84F WCI  37
CISCO          MIX PCPN  43  36  75 W14G28    29.86R WCI  36
RANGER         CLOUDY    43  37  78 W13G21    29.84R WCI  36
MINERAL WELLS  MOCLDY    46  37  71 W15G25    29.80R WCI  40
STEPHENVILLE   PTCLDY    46  36  67 W10G20    29.87R
COMANCHE       CLOUDY    45  37  72 W17G24    29.88R WCI  38
BROWNWOOD      CLOUDY    46  34  61 W12G17    29.91R
COLEMAN        CLOUDY    43  34  70 W9        29.92R WCI  38
$$

TXZ143>147-156>162-174-175-301100-
CENTRAL TEXAS

CITY           SKY/WX    TMP DP  RH WIND       PRES   REMARKS
WACO           CLOUDY    53  50  89 W8        29.85R
WACO-MCGREGOR  LGT RAIN  53  50  89 NW9       29.80F
HILLSBORO      CLOUDY    53  49  86 SW12      29.83R
CORSICANA      CLOUDY    54  50  86 W9        29.79F
MEXIA          CLOUDY    53  50  90 W7        29.79F
HEARNE         CLOUDY    55  55 100 SW14      29.91R
CAMERON        LGT RAIN  56  53  89 SW5       29.86R
TEMPLE         LGT RAIN  55  52  89 W12       29.86R
KILLEEN        LGT RAIN  53  50  88 NW17      29.82F
KILLEEN-SKYLRK LGT RAIN  55  49  80 NW17G24   29.82F
FORT HOOD      LGT RAIN  54  50  87 W20       29.79F
GATESVILLE     CLOUDY    52  43  71 NW12G17   29.86F
HAMILTON       CLOUDY    48  40  73 W13G21    29.87F
LAMPASAS       CLOUDY    50  46  84 W7        29.87S
$$

TXZ095>097-106>112-122>126-135>138-148>153-164>167-301100-
EAST TEXAS

CITY           SKY/WX    TMP DP  RH WIND       PRES   REMARKS
PARIS          CLOUDY    54  46  76 W5        29.67F
SULPHUR SPRNGS CLOUDY    55  51  88 SW8       29.75S
MOUNT PLEASANT MOCLDY    56  51  85 W3G10     29.71F
GILMER         CLOUDY    54  52  92 CALM      29.70F
MINEOLA        PTCLDY    55  50  82 W8        29.72R
TYLER          CLOUDY    55  51  86 W9        29.75F
LONGVIEW       CLOUDY    56  54  93 W7        29.74F
MARSHALL       CLOUDY    55  51  88 CALM      29.77F
ATHENS         LGT RAIN  52  50  93 W5        29.78R
PALESTINE      LGT RAIN  55  52  89 W9G21     29.78F
JACKSONVILLE   CLOUDY    55  52  88 W6        29.79R
HENDERSON      CLOUDY    55  54  95 SW5       29.79R
CENTER         CLOUDY    61  59  93 SE3       29.79R
NACOGDOCHES    CLOUDY    57  52  82 W14       29.77R
LUFKIN         CLOUDY    57  52  83 W6        29.77S
$$

SUPPLEMENTAL OBSERVATIONS (CENTRAL)

CITY           SKY/WX    TMP DP  RH WIND       PRES   REMARKS
CADDO GRASSLND   N/A     52  48  87 W3          N/A
PAT MAYSE LAKE   N/A     54  52  94 SW13        N/A
GREENVILLE       N/A     52  48  87 SW8         N/A
CEDAR HILL       N/A     52  45  76 SW9G17      N/A
MCGREGOR         N/A     54  50  87 W3          N/A
TEMPLE           N/A     55  52  88 W8          N/A
$$

SUPPLEMENTAL OBSERVATIONS (WEST)

CITY           SKY/WX    TMP DP  RH WIND       PRES   REMARKS
MILLERS CREEK    N/A     43  36  75 W15         N/A  WCI  35
POSSUM KINGDOM   N/A     43  36  75 W9G18       N/A  WCI  37
LBJ GRASSLAND    N/A     45  36  70 W10G21      N/A  WCI  39
GRANBURY         N/A     48  37  66 W15G24      N/A
HAMBY            N/A     43  32  65 W15         N/A  WCI  35
IVIE RESERVOIR   N/A     45  32  61 W16G23      N/A  WCI  37
COLORADO BEND    N/A     46  37  71 N9          N/A
$$

SUPPLEMENTAL OBSERVATIONS (EAST)

CITY           SKY/WX    TMP DP  RH WIND       PRES   REMARKS
CLARKSVILLE      N/A     54  50  87 W1          N/A
GILMER           N/A     55  50  82 SW5         N/A
HENDERSON        N/A     55  52  88 SW7         N/A
LUFKIN           N/A     57  52  82 MISG        N/A
N SABINE NF      N/A     57  55  94 MISG        N/A
$$

SUPPLEMENTAL OBSERVATIONS ARE A COLLECTION OF AUTOMATED INSTRUMENTS
THAT ARE MAINTAINED BY A VARIETY OF FEDERAL AND STATE AGENCIES.
CERTAIN ELEMENTS...SUCH AS HUMIDITY VALUES AND SUSTAINED WIND
SPEEDS...MAY BE APPROXIMATED.





USA.gov is the U.S. government's official web portal to all federal, state and local government web resources and services.